STARLINK-31756, 61517

Orbit data source: Space-Track

STARLINK-31756, 61517 is a payload satellite owned by SpaceX/Seattle (US) in LEO that was launched on Tue, 15 Oct 2024 UTC via an FALCON 9 launch vehicle from the Air Force Eastern Test Range (AFETR). Payload-class satellites include a variety of spacecraft equipped with specific instruments for various scientific and technological missions. These include communications satellites like Starlink; space stations such as the ISS; scientific satellites like the Hubble; Earth observation satellites from companies like Planet Labs, Umbra, and HawkEye 360; GPS; miniature CubeSats for education and research; and military/defense satellites.

Loading next visibility...
Identifier
61517, 2024-183J
Orbit
LEO
Country
Flag of USUS
Related business
Manufacturer
SpaceX/Seattle
Mission
Operational Commercial Communications
Bus & Motor
STARLINK V2M, Unknown motor
Mass
730 kg wet, ~700 kg dry
Launch date (UTC)
2024-10-15 (1 year ago)
Launch vehicle
FALCON 9
Launch site
Air Force Eastern Test Range (AFETR)
Object type
Payload
Rocket body
Debris
Shape & HBR
Box + 2 Pan, 17.7 m
Radar Cross Section
33.884 m², Large (>1 m²)

Expand to show TLE details & history
Last TLE update: 14 hours ago

TLE from 14 hours ago
0 STARLINK-31756
1 61517U 24183J   25346.80026305 -.00000507  00000-0 -49902-5 0  9995
2 61517  53.1589 186.3881 0001226  97.9692 262.1448 15.30180758 66345
Epoch: 2025-12-12T19:12Z
TLE epoch observation values (Epoch: 2025-12-12T19:12:22.727Z)
Latitude
-0.00002°
Longitude
176.5567°
Altitude
476.287 km
Speed
7.629 km/s
True Right ascension
12h 25m 33s
True Declination
0° 00' 00"
Sunlit
Object was in daylight at epoch
Visualization orbit readout
Latitude
Unknown
Longitude
Unknown
Altitude
Unknown
Speed
Unknown
Apparent Right ascension
Unknown
Apparent Declination
Unknown
Sunlit
N/A
Visualization observer readout
Local Sidereal Time
07:32:40
Azimuth
Unknown
Elevation
Unknown
Doppler factor
Unknown
Orbital elements
Apogee altitude
476.369 km
Perigee altitude
474.689 km
Semi-major axis
6,853.666 km
Eccentricity
0.00012
Inclination
53.1589°
RAAN
186.3881°
Arg. of periapsis
97.9692°
True anomaly
262.13088°
Mean anomaly
262.1448°
Eccentric anomaly
262.13784°
Mean motion
3.82524 °/min
Orbital period
94.11 mins
BSTAR
-0.0000049902
Loading maneuver chart data...
Computing Atmospheric mass density...
Loading historical data...
Loading historical data...
Loading historical data...
Loading historical data...
Loading historical data...
Loading historical data...
Loading historical data...

Documentation

Showing up to 5 results
|